Back to catalog

STARLINK-3597

AliveCommunicationsVLEO
NORAD 51898·PAYLOAD·🇺🇸 United States

Launched Mar 3, 2022 from Cape Canaveral Space Force Station

Loading…

Next Passes (next 24 hours)

TLE

FreshSource: CelesTrak SupGP

Epoch: Sep 15, 2026, 01:53 UTC

1 51898C 22022AY  26258.07895833 -.00060569  00000+0 -17883-2 0  2589
2 51898  53.1570 212.7283 0001177  92.3236 185.6184 15.34442554    11

Track STARLINK-3597 in real time with AllMySat

Download on the App Store